Weather History for Greenville/Spartanburg, SC

Change the Weather History Date:

Thursday, January 17, 2013

  Actual Average Record
Temperature  
Mean Temperature 46 °F 42 °F  
Max Temperature 53 °F 52 °F 77 °F (1943)
Min Temperature 38 °F 32 °F -4 °F (1893)
Degree Days  
Heating Degree Days 19 23  
Month to date heating degree days 246 391  
Since 1 July heating degree days 1293 1594  
Cooling Degree Days 0 0  
Month to date cooling degree days 0 0  
Year to date cooling degree days 0 0  
Moisture  
Dew Point 46 °F    
Average Humidity 92    
Maximum Humidity 100    
Minimum Humidity 83    
Precipitation  
Precipitation 2.22 in 0.12 in 2.22 in (2013)
Month to date precipitation 3.95 2.10  
Year to date precipitation 3.95 2.10  
Snow  
Snow 0.00 in 0.10 in 1.70 in (1994)
Month to date snowfall 0.0 1.3  
Since 1 July snowfall T 1.8  
Snow Depth 0.00 in    
Sea Level Pressure  
Sea Level Pressure 29.93 in    
Wind  
Wind Speed 10 mph (NNE)    
Max Wind Speed 28 mph    
Max Gust Speed 38 mph    
Visibility 6 miles    
Events Rain    
T = Trace of Precipitation, MM = Missing Value Source: NWS Daily Summary

Daily Weather History Graph

Daily Weather History Graph

Search for Another Location

Airport:

Trip Planner

Search our weather history database for the weather conditions in past years. The results will help you decide how hot, cold, wet, or windy it might be!

Date:

Astronomy

Jan. 17, 2013 Rise Set
Actual Time 7:35 AM EST 5:43 PM EST
Civil Twilight 7:08 AM EST 6:10 PM EST
Nautical Twilight 6:37 AM EST 6:41 PM EST
Astronomical Twilight 6:06 AM EST 7:11 PM EST
Moon 10:59 AM EST No Moon Set
Length of Visible Light 11h 02m
Length of Day
10h 07m
Waxing Crescent, 37% of the Moon is Illuminated
Jan 17
Waxing Crescent
Jan 18
First Quarter
Jan 26
Full
Feb 3
Last Quarter
Feb 10
New

Hourly Weather History & Observations

Time (EST) Temp. Windchill Dew Point Humidity Pressure Visibility Wind Dir Wind Speed Gust Speed Precip Events Conditions
12:53 AM 51.1 °F - 50.0 °F 96% 29.95 in 10.0 mi Calm Calm - 0.01 in   Overcast
1:01 AM 51.8 °F - 50.0 °F 94% 29.96 in 9.0 mi Calm Calm - N/A   Overcast
1:18 AM 51.8 °F - 50.0 °F 94% 29.96 in 9.0 mi Calm Calm - N/A   Overcast
1:53 AM 51.1 °F - 50.0 °F 96% 29.95 in 5.0 mi Calm Calm - 0.00 in Rain Light Rain
2:42 AM 51.8 °F - 50.0 °F 94% 29.94 in 9.0 mi Calm Calm - 0.01 in Rain Light Rain
2:53 AM 51.1 °F - 50.0 °F 96% 29.94 in 5.0 mi Calm Calm - 0.02 in Rain Light Rain
3:40 AM 51.8 °F - 50.0 °F 94% 29.93 in 5.0 mi Calm Calm - 0.02 in Rain Light Rain
3:53 AM 51.1 °F - 50.0 °F 96% 29.92 in 4.0 mi Calm Calm - 0.03 in Rain Light Rain
4:28 AM 51.8 °F - 50.0 °F 94% 29.92 in 8.0 mi NNE 3.5 mph - 0.02 in Rain Light Rain
4:39 AM 51.8 °F - 50.0 °F 94% 29.92 in 8.0 mi North 3.5 mph - 0.02 in Rain Light Rain
4:53 AM 51.1 °F - 50.0 °F 96% 29.91 in 3.0 mi NNE 3.5 mph - 0.06 in Rain Rain
5:29 AM 51.8 °F - 50.0 °F 94% 29.92 in 5.0 mi NNE 4.6 mph - 0.03 in Rain Light Rain
5:53 AM 51.1 °F - 51.1 °F 100% 29.91 in 3.0 mi NE 4.6 mph - 0.06 in Rain Heavy Rain
6:53 AM 51.1 °F - 51.1 °F 100% 29.91 in 3.0 mi NNE 5.8 mph - 0.11 in Rain Light Rain
7:53 AM 52.0 °F - 51.1 °F 97% 29.91 in 3.0 mi ENE 6.9 mph - 0.09 in Rain Light Rain
7:57 AM 51.8 °F - 51.8 °F 100% 29.91 in 7.0 mi NE 6.9 mph - 0.00 in Rain Light Rain
8:05 AM 51.8 °F - 51.8 °F 100% 29.91 in 3.0 mi NE 9.2 mph - 0.00 in Rain Light Rain
8:48 AM 51.8 °F - 51.8 °F 100% 29.92 in 1.8 mi NE 8.1 mph - 0.03 in Rain Rain
8:53 AM 52.0 °F - 51.1 °F 97% 29.92 in 1.8 mi NE 9.2 mph - 0.05 in Rain Rain
9:11 AM 51.8 °F - 51.8 °F 100% 29.91 in 3.0 mi NE 10.4 mph - 0.09 in Rain Rain
9:53 AM 53.1 °F - 52.0 °F 96% 29.90 in 9.0 mi NE 11.5 mph - 0.12 in Rain Light Rain
10:25 AM 53.6 °F - 51.8 °F 94% 29.89 in 1.5 mi NE 12.7 mph - 0.06 in Rain Rain
10:53 AM 52.0 °F - 51.1 °F 97% 29.86 in 2.0 mi NE 13.8 mph 24.2 mph 0.07 in Rain Light Rain
11:53 AM 51.8 °F - 50.0 °F 94% 29.83 in 2.0 mi NE 16.1 mph 25.3 mph N/A Rain Light Rain
12:12 PM 51.8 °F - 50.0 °F 94% 29.82 in 1.0 mi NE 11.5 mph - 0.12 in Rain Heavy Rain
12:38 PM 51.8 °F - 50.0 °F 94% 29.79 in 2.5 mi NE 17.3 mph - 0.19 in Rain Light Rain
12:53 PM 51.1 °F - 50.0 °F 96% 29.76 in 8.0 mi NE 12.7 mph 23.0 mph 0.20 in Rain Light Rain
1:15 PM 51.8 °F - 48.2 °F 88% 29.76 in 1.0 mi NNE 15.0 mph 23.0 mph 0.04 in Rain Heavy Rain
1:53 PM 48.9 °F - 46.9 °F 93% 29.74 in 2.0 mi NNE 21.9 mph 35.7 mph 0.22 in Rain Light Rain
2:48 PM 48.2 °F - 44.6 °F 87% 29.80 in 1.5 mi NNE 11.5 mph 19.6 mph 0.18 in Rain Heavy Rain
2:53 PM 48.0 °F - 45.0 °F 89% 29.80 in 1.5 mi North 16.1 mph 24.2 mph 0.22 in Rain Heavy Rain
3:00 PM 46.4 °F 40.1 °F 44.6 °F 93% 29.82 in 1.5 mi NNE 15.0 mph 24.2 mph 0.04 in Rain Heavy Rain
3:53 PM 46.0 °F 39.3 °F 45.0 °F 96% 29.77 in 1.5 mi NE 16.1 mph 24.2 mph 0.29 in Rain Heavy Rain
4:49 PM 46.4 °F 38.7 °F 42.8 °F 87% 29.76 in 10.0 mi NE 20.7 mph 35.7 mph 0.09 in Rain Light Rain
4:53 PM 46.0 °F 39.0 °F 43.0 °F 89% 29.76 in 10.0 mi NE 17.3 mph 35.7 mph 0.09 in Rain Light Rain
5:48 PM 44.6 °F 37.8 °F 42.8 °F 93% 29.86 in 2.5 mi NE 15.0 mph 23.0 mph 0.05 in Rain Rain
5:53 PM 45.0 °F 38.9 °F 42.1 °F 90% 29.86 in 2.5 mi NE 12.7 mph 23.0 mph 0.07 in Rain Rain
5:55 PM 44.6 °F 38.4 °F 42.8 °F 93% 29.85 in 2.5 mi NE 12.7 mph - 0.00 in Rain Heavy Rain
6:14 PM 44.6 °F 37.2 °F 42.8 °F 93% 29.87 in 3.0 mi NNE 17.3 mph 24.2 mph 0.05 in Rain Rain
6:43 PM 44.6 °F 39.2 °F 41.0 °F 87% 29.93 in 7.0 mi North 10.4 mph 21.9 mph 0.12 in Rain Rain
6:53 PM 44.1 °F 37.4 °F 39.9 °F 85% 29.94 in 6.0 mi North 13.8 mph 21.9 mph 0.14 in Rain Rain
7:41 PM 42.8 °F 36.2 °F 39.2 °F 87% 30.01 in 9.0 mi North 12.7 mph 26.5 mph 0.06 in Rain Rain
7:53 PM 42.1 °F 34.5 °F 39.0 °F 89% 30.03 in 10.0 mi North 15.0 mph 20.7 mph 0.08 in Rain Rain
8:21 PM 41.0 °F 33.5 °F 39.2 °F 93% 30.07 in 9.0 mi NNE 13.8 mph 23.0 mph 0.04 in Rain Rain
8:53 PM 39.9 °F 31.4 °F 37.9 °F 93% 30.09 in 7.0 mi NNE 16.1 mph 23.0 mph 0.09 in Rain Rain
9:07 PM 39.2 °F 30.5 °F 37.4 °F 93% 30.09 in 10.0 mi NNE 16.1 mph - 0.02 in Rain Light Rain
9:39 PM 39.2 °F 33.6 °F 37.4 °F 93% 30.12 in 10.0 mi NNE 8.1 mph - 0.02 in Rain Light Rain
9:53 PM 39.0 °F 33.4 °F 37.0 °F 93% 30.11 in 10.0 mi NE 8.1 mph - 0.02 in   Mostly Cloudy
10:00 PM 39.2 °F 34.2 °F 37.4 °F 93% 30.11 in 10.0 mi NNE 6.9 mph - N/A   Mostly Cloudy
10:08 PM 39.2 °F 34.2 °F 37.4 °F 93% 30.12 in 10.0 mi North 6.9 mph - N/A   Mostly Cloudy
10:15 PM 39.2 °F 35.0 °F 37.4 °F 93% 30.15 in 10.0 mi North 5.8 mph - N/A   Mostly Cloudy
10:26 PM 39.2 °F 34.2 °F 37.4 °F 93% 30.14 in 10.0 mi North 6.9 mph - N/A   Overcast
10:42 PM 39.2 °F 33.0 °F 37.4 °F 93% 30.15 in 10.0 mi NNE 9.2 mph - N/A   Overcast
10:53 PM 41.0 °F 38.0 °F 37.9 °F 89% 30.16 in 10.0 mi North 4.6 mph - N/A   Overcast
11:53 PM 37.9 °F - 36.0 °F 93% 30.20 in 10.0 mi Calm Calm - N/A   Scattered Clouds